Hourly Data Report for September 30, 2017

All times are specified in Local Standard Time (LST). Add 1 hour to adjust for Daylight Saving Time where and when it is observed.

PANGNIRTUNG
NUNAVUT

66°08'36.300" N
65°42'40.500" W
22.60 m
2403049
71826
WXP

Download Data

Hourly Data (September 2017)
Hourly Data Report for September 30, 2017
Temp Definition
°C
Dew Point Temp Definition
°C
Rel Hum Definition
%
Wind Dir Definition
10's deg

Wind Spd Definition
km/h
Visibility Definition
km
Stn Press Definition
kPa
Hmdx Definition


Wind Chill Definition


Weather Definition


TIME
00:00 -4.7 -10.7 63 27 6   100.01   -7 LegendNANA
01:00 -5.7 -10.7 68 14 4   99.97   -8 LegendNANA
02:00 -6.2 -11.4 66 24 4   99.91   -8 LegendNANA
03:00 -6.3 -11.1 69 20 6   99.83   -9 LegendNANA
04:00 -6.1 -11.5 66 14 9   99.76   -10 LegendNANA
05:00 -6.3 -11.3 68 15 7   99.70   -10 LegendNANA
06:00 -7.0 -12.1 67 12 10   99.60   -12 LegendNANA
07:00 -6.5 -11.4 68 12 16   99.53   -13 LegendNANA
08:00 -5.1 -11.1 63 12 7   99.43   -8 LegendNANA
09:00 -3.8 -11.1 57 10 8   99.34   -7 LegendNANA
10:00 -3.1 -11.7 52 12 5   99.25   -5 LegendNANA
11:00 -2.4 -11.2 51 1 4   99.17   -4 LegendNANA
12:00 -1.5 -11.6 46 3 4   99.09   -3 LegendNANA
13:00 0.7 -10.1 44 9 20   99.03     LegendNANA
14:00 0.7 -9.7 46 10 27   99.01     LegendNANA
15:00 0.7 -9.9 45 10 24   98.97     LegendNANA
16:00 0.1 -10.3 46 7 14   98.98     LegendNANA
17:00 -0.8 -10.4 48 9 19   99.01   -6 LegendNANA
18:00 -0.3 -10.9 45 10 22   99.08   -6 LegendNANA
19:00 -1.3 -10.6 49 12 24   99.14   -7 LegendNANA
20:00 -2.3 -9.8 57 16 34   99.23   -10 LegendNANA
21:00 -1.9 -9.3 57 14 26   99.29   -8 LegendNANA
22:00 -1.6 -9.2 56 15 25   99.35   -8 LegendNANA
23:00 -1.6 -10.0 53 21 5   99.42   -3 LegendNANA

Notes on Data Quality.

Legend

  • E = Estimated
  • M = Missing
  • NA = Not Available
  • ‡ = Partner data that is not subject to review by the National Climate Archives
Date modified: